Flight Track Log - Related Links

Times and Time Zones

All times are in EDT time to prevent confusion due to time zone crossing. See the EJA122 flight status page for this flight to view local times or setup timezone preferences in your user account.

Time Position Orientation Groundspeed Altitude Reporting Facility
EDT Latitude Longitude Course Direction KTS MPH feet Rate Location/Type
03:17PM 37.6406 -97.4278 146° Southeast 147 169 2,000  Level Kansas City Center
03:18PM 37.5992 -97.3919 146° Southeast 229 264 4,100 1,667 Climbing Kansas City Center
03:19PM 37.6189 -97.3458 62° Northeast 263 303 5,000 1,653 Climbing Kansas City Center
03:20PM 37.6600 -97.2611 58° Northeast 282 325 6,800 1,854 Climbing Kansas City Center
03:21PM 37.7058 -97.1664 59° Northeast 311 358 8,800 1,805 Climbing Kansas City Center
03:22PM 37.7539 -97.0725 57° Northeast 319 367 10,500 1,667 Climbing Kansas City Center
03:23PM 37.8150 -96.9497 58° Northeast 343 395 12,300 1,632 Climbing Kansas City Center
03:24PM 37.9100 -96.9203 14° North 356 410 13,900 1,610 Climbing Kansas City Center
03:25PM 38.0078 -96.9203 360° North 353 406 15,600 1,707 Climbing Kansas City Center
03:26PM 38.0772 -96.8356 44° Northeast 356 410 17,400 1,694 Climbing Kansas City Center
03:27PM 38.1042 -96.7136 74° East 358 412 19,100 1,654 Climbing Kansas City Center
03:28PM 38.1353 -96.5631 75° East 366 421 20,900 1,403 Climbing Kansas City Center
03:29PM 38.1622 -96.4375 75° East 368 423 22,000 1,041 Climbing Kansas City Center
03:30PM 38.1903 -96.3069 75° East 380 437 23,000 952 Climbing Kansas City Center
03:31PM 38.2183 -96.1736 75° East 388 447 24,000 1,008 Climbing Kansas City Center
03:32PM 38.2497 -96.0225 75° East 394 453 25,100 1,016 Climbing Kansas City Center
03:33PM 38.2769 -95.8919 75° East 398 458 26,100 1,016 Climbing Kansas City Center
03:34PM 38.3092 -95.7367 75° East 405 466 27,200 1,016 Climbing Kansas City Center
03:35PM 38.3261 -95.6006 81° East 406 467 28,200 1,016 Climbing Kansas City Center
03:36PM 38.3633 -95.4475 73° East 407 468 29,300 919 Climbing Kansas City Center
03:37PM 38.3961 -95.3161 72° East 406 467 30,100 768 Climbing Kansas City Center
03:38PM 38.4275 -95.1542 76° East 419 482 30,900 726 Climbing Kansas City Center
03:39PM 38.4556 -95.0153 75° East 423 487 31,600 726 Climbing Kansas City Center
03:40PM 38.4878 -94.8525 76° East 426 490 32,400 689 Climbing Kansas City Center
03:41PM 38.5158 -94.7103 76° East 431 496 33,000 288 Climbing Kansas City Center
03:43PM 38.5475 -94.5417 76° East 436 502 33,000  Level Kansas City Center
03:44PM 38.5767 -94.3900 76° East 454 522 33,000  Level Kansas City Center
03:45PM 38.6108 -94.2106 76° East 465 535 33,000  Level Kansas City Center
03:46PM 38.6408 -94.0539 76° East 472 543 33,000  Level Kansas City Center
03:47PM 38.6756 -93.8686 76° East 479 551 33,000  Level Kansas City Center
03:48PM 38.7033 -93.7186 77° East 480 552 33,000  Level Kansas City Center
03:49PM 38.7356 -93.5494 76° East 484 557 33,000  Level Kansas City Center
03:50PM 38.7731 -93.3467 77° East 485 558 33,000  Level Kansas City Center
03:51PM 38.8022 -93.1792 77° East 483 556 33,000  Level Kansas City Center
03:52PM 38.8322 -93.0122 77° East 481 554 33,000  Level Kansas City Center
03:53PM 38.8633 -92.8417 77° East 484 557 33,000  Level Kansas City Center
03:54PM 38.8931 -92.6733 77° East 483 556 33,000  Level Kansas City Center
03:55PM 38.9217 -92.5056 78° East 481 554 33,000  Level Kansas City Center
03:56PM 38.9508 -92.3361 77° East 481 554 33,000  Level Kansas City Center
03:57PM 38.9789 -92.1692 78° East 478 550 33,000  Level Kansas City Center
03:58PM 39.0128 -91.9681 78° East 477 549 33,000  Level Kansas City Center
03:59PM 39.0417 -91.7994 78° East 479 551 33,000  Level Kansas City Center
04:00PM 39.0692 -91.6272 78° East 477 549 33,000  Level Kansas City Center
04:01PM 39.1175 -91.4683 69° East 478 550 33,000  Level Kansas City Center
04:02PM 39.1761 -91.3156 64° Northeast 475 547 33,000  Level Kansas City Center
04:03PM 39.2333 -91.1608 64° Northeast 477 549 33,000  Level Kansas City Center
04:04PM 39.2875 -91.0022 66° East 481 554 33,000  Level Kansas City Center
04:05PM 39.3161 -90.8372 77° East 479 551 33,000  Level Kansas City Center
04:06PM 39.3403 -90.6681 79° East 478 550 33,000  Level Kansas City Center
04:07PM 39.3669 -90.4642 80° East 478 550 33,000  Level Kansas City Center
04:08PM 39.3881 -90.2936 81° East 479 551 33,000 240 Level Kansas City Center
04:09PM 39.4092 -90.1239 81° East 478 550 33,500  Climbing Kansas City Center
04:10PM 39.4297 -89.9531 81° East 480 552 33,000 -248 Descending Kansas City Center
04:11PM 39.4506 -89.7869 81° East 473 544 33,000  Level Kansas City Center
04:12PM 39.4700 -89.6222 81° East 467 537 33,000  Level Kansas City Center
04:14PM 39.4933 -89.4261 81° East 462 532 33,000  Level Kansas City Center
04:15PM 39.4964 -89.2567 89° East 457 526 33,000  Level Kansas City Center
04:16PM 39.4833 -89.0969 96° East 451 519 33,000  Level Kansas City Center
04:17PM 39.4686 -88.9339 97° East 456 525 33,000  Level Kansas City Center
04:18PM 39.4531 -88.7736 97° East 452 520 33,000  Level Kansas City Center
04:19PM 39.4675 -88.6106 83° East 462 532 33,000  Level Kansas City Center
04:20PM 39.4969 -88.4336 78° East 448 516 33,000  Level Kansas City Center
04:21PM 39.5244 -88.2697 78° East 456 525 33,000  Level Kansas City Center
04:22PM 39.5500 -88.1078 78° East 458 527 33,000  Level Indianapolis Center
04:23PM 39.5750 -87.9469 79° East 458 527 33,000  Level Indianapolis Center
04:24PM 39.6008 -87.7864 78° East 455 524 33,000  Level Indianapolis Center
04:25PM 39.6253 -87.6256 79° East 458 527 33,000 -194 Level Indianapolis Center
04:26PM 39.6517 -87.4661 78° East 455 524 32,600 -774 Descending Indianapolis Center
04:27PM 39.6756 -87.3022 79° East 461 531 31,400 -1,306 Descending Indianapolis Center
04:28PM 39.7064 -87.1061 78° East 464 534 29,900 -1,152 Descending Indianapolis Center
04:29PM 39.7319 -86.9392 79° East 472 543 29,000 -432 Descending Indianapolis Center
04:30PM 39.7567 -86.7692 79° East 478 550 29,000  Level Indianapolis Center
04:31PM 39.7811 -86.6008 79° East 475 547 29,000  Level Indianapolis Center
04:32PM 39.8067 -86.4328 79° East 472 543 29,000  Level Indianapolis Center
04:33PM 39.8289 -86.2522 81° East 473 544 29,000 -484 Level Indianapolis Center
04:34PM 39.8472 -86.0819 82° East 478 550 28,000 -1,065 Descending Indianapolis Center
04:35PM 39.8656 -85.9086 82° East 482 555 26,800 -1,258 Descending Indianapolis Center
04:36PM 39.8869 -85.7033 82° East 479 551 25,400 -871 Descending Indianapolis Center
04:37PM 39.9047 -85.5356 82° East 470 541 25,000 -194 Descending Indianapolis Center
04:38PM 39.9208 -85.3667 83° East 470 541 25,000  Level Indianapolis Center
04:39PM 39.9425 -85.2014 80° East 467 537 25,000  Level Indianapolis Center
04:40PM 40.0117 -85.0622 57° Northeast 457 526 25,000 -435 Level Indianapolis Center
04:41PM 40.1164 -84.9197 46° Northeast 452 520 24,100 -1,016 Descending Indianapolis Center
04:42PM 40.1989 -84.8106 45° Northeast 461 531 22,900 -1,355 Descending Indianapolis Center
04:43PM 40.2847 -84.6925 46° Northeast 451 519 21,300 -1,548 Descending Indianapolis Center
04:44PM 40.3667 -84.5775 47° Northeast 435 501 19,700 -1,680 Descending Indianapolis Center
04:45PM 40.4614 -84.4464 46° Northeast 410 472 17,800 -1,680 Descending Indianapolis Center
04:47PM 40.5378 -84.3394 47° Northeast 402 463 16,200 -1,742 Descending Indianapolis Center
04:48PM 40.6139 -84.2311 47° Northeast 402 463 14,200 -1,984 Descending Indianapolis Center
04:49PM 40.6872 -84.1278 47° Northeast 389 448 12,100 -1,839 Descending Indianapolis Center
04:50PM 40.7542 -84.0339 47° Northeast 357 411 10,400 -1,742 Descending Indianapolis Center
04:51PM 40.8103 -83.9567 46° Northeast 301 346 8,500 -2,081 Descending Indianapolis Center
04:52PM 40.8761 -83.8628 47° Northeast 292 336 6,100 -2,129 Descending Indianapolis Center
04:53PM 40.9292 -83.7858 48° Northeast 287 330 4,100 -1,063 Descending Indianapolis Center
04:55PM 41.0247 -83.6533 46° Northeast 282 325 3,000 -584 Descending Cleveland Center

Login

Don't have an account? Register now (free) for customized features, flight alerts, and more!